Wind_Speed
13 14 14 15 17 16 14 16 16 16 15 15 14 14 13 13 12 12 12 12 12 11 10 10 10 10 10 11 11 11 12 12 12 12 12 11 11 11 11 11 10 10 9 9 8 8 7 7 7
12 12 13 14 15 12 13 14 15 15 15 15 14 14 13 12 12 12 11 11 11 10 9 9 9 9 9 10 10 11 11 11 11 11 11 11 11 10 10 10 10 9 9 8 7 7 7 7 7
11 12 12 13 11 10 12 13 14 14 14 14 14 14 13 12 11 10 10 11 10 9 9 9 9 9 9 10 10 10 10 10 10 10 10 10 10 9 9 9 9 8 7 7 6 6 6 7 7
11 11 12 11 9 9 10 11 13 14 13 14 14 13 13 12 11 10 10 9 9 8 8 8 8 9 9 9 9 9 9 9 9 9 10 10 9 9 8 7 7 7 7 6 6 6 6 7 7
10 11 11 9 9 9 9 10 12 13 13 13 13 13 13 12 11 10 9 9 8 7 8 8 8 8 9 9 9 9 9 9 9 9 9 9 9 9 8 7 8 7 7 6 6 6 6 6 7
9 10 9 7 7 8 8 9 11 12 12 12 12 13 12 12 11 10 10 9 8 7 6 7 7 8 8 8 8 8 8 9 8 8 8 8 9 9 9 8 8 7 7 6 6 6 6 7 7
8 8 7 6 6 7 7 8 10 10 11 11 11 12 11 12 11 10 9 8 8 7 6 5 6 7 7 7 7 7 7 8 8 7 7 7 7 7 8 8 7 7 6 6 6 6 6 6 7
6 7 6 5 5 6 7 7 9 9 10 10 10 10 11 11 10 9 8 7 7 6 5 5 5 6 6 6 6 7 6 7 7 6 6 7 6 6 6 7 6 6 6 6 5 6 6 6 5
4 6 5 5 5 5 6 6 7 8 9 10 10 10 9 9 9 8 7 7 6 5 4 4 4 5 5 5 5 6 6 6 6 6 6 6 6 5 5 5 6 6 6 6 5 5 5 5 4
4 5 4 4 4 4 4 5 6 7 8 8 9 9 9 8 8 7 7 6 5 5 4 3 3 4 4 4 4 5 5 5 6 6 6 6 6 5 4 4 4 5 5 5 5 4 4 4 4
4 4 4 3 2 2 3 4 5 6 7 7 7 8 9 8 8 7 6 6 5 5 4 3 3 3 3 3 3 4 4 5 5 5 5 5 5 5 4 4 4 4 4 4 4 4 4 3 3
6 4 4 3 2 2 2 3 4 5 5 6 6 6 8 8 7 7 6 5 5 4 3 3 3 2 2 2 2 3 3 4 4 4 3 3 3 3 3 3 3 3 3 3 4 3 3 3 3
9 7 6 5 4 2 1 2 2 3 4 4 5 5 6 7 6 6 6 5 4 4 3 2 2 1 1 1 1 1 1 2 2 3 3 2 2 2 3 3 2 2 2 3 3 3 2 2 2
11 9 8 7 6 4 2 1 1 1 1 3 4 5 5 5 6 6 5 5 4 4 3 2 1 0 1 1 2 2 2 1 2 2 2 2 2 2 3 3 3 3 2 2 2 2 2 2 1
14 12 11 9 8 6 4 3 2 2 1 1 2 3 4 5 5 5 5 5 4 4 3 2 2 2 2 2 3 3 2 2 2 2 2 3 3 3 3 3 3 3 3 3 2 3 3 2 2
16 15 14 12 9 8 6 5 5 4 3 1 1 2 2 3 4 4 4 5 5 4 4 4 4 4 3 3 3 4 4 4 3 3 3 3 3 3 3 4 4 4 4 4 3 4 4 4 3
18 17 16 14 12 10 8 7 7 5 4 3 2 2 2 3 3 4 4 5 5 5 5 5 5 5 4 4 4 5 6 5 5 4 4 4 4 5 5 5 6 5 5 5 5 5 5 4 4
20 18 18 17 15 12 10 10 8 7 6 5 5 4 4 4 4 4 5 5 5 6 5 6 6 6 5 5 5 6 7 7 7 6 6 5 5 6 6 6 6 6 6 7 6 6 6 6 6
22 21 20 20 17 15 14 12 10 9 8 8 7 6 6 6 5 5 6 5 5 6 6 6 6 6 6 5 5 6 7 7 7 7 7 6 6 6 7 7 7 7 7 7 7 7 7 7 6
24 23 23 22 20 18 16 14 12 12 11 10 9 9 9 8 7 7 6 6 7 7 7 6 6 5 6 5 5 6 7 8 8 8 8 8 8 7 8 8 8 7 7 7 8 8 9 8 7
26 25 24 23 21 20 18 16 15 14 13 12 11 11 10 9 8 8 8 8 8 8 8 8 6 5 6 6 6 7 7 8 9 9 9 10 9 9 9 9 9 9 8 9 9 9 9 9 9
28 27 26 25 23 22 20 17 17 15 13 13 12 12 11 11 10 10 10 9 10 10 10 8 6 6 6 7 8 8 8 8 9 10 10 10 10 10 10 10 10 11 10 10 10 10 11 11 11
30 28 27 26 25 24 22 19 18 16 14 13 13 12 12 12 12 12 11 10 11 11 10 9 7 7 8 9 10 9 9 9 9 10 11 11 11 11 11 12 11 11 11 11 11 12 12 12 12
31 29 28 27 26 26 23 21 19 17 15 14 14 14 13 13 13 13 12 12 12 11 11 10 9 9 10 10 10 10 10 10 11 11 11 11 11 12 12 13 13 13 12 12 12 12 12 12 13
32 30 28 28 27 26 24 22 20 18 16 15 15 14 14 14 14 14 13 13 12 11 12 12 11 11 11 11 11 12 12 12 12 11 11 11 12 12 13 13 13 13 12 12 12 12 12 13 14
31 31 29 26 24 24 25 23 21 18 17 16 16 15 15 15 14 14 14 13 13 12 12 12 12 12 12 12 12 11 11 12 11 11 11 12 12 12 13 13 13 14 13 13 13 13 14 14 14
32 31 30 28 26 23 24 22 20 19 17 17 17 16 16 15 15 15 15 14 13 13 13 13 13 13 12 11 11 11 11 11 11 11 11 12 12 13 12 13 14 14 14 14 13 14 14 14 14
32 31 31 29 27 24 23 22 21 19 18 17 17 16 16 16 16 16 16 15 14 14 14 14 14 14 13 13 11 11 11 11 11 12 12 13 14 14 14 13 14 14 15 15 15 15 15 15 15
31 31 31 29 28 23 19 20 21 19 18 17 16 16 16 16 16 16 15 15 15 14 14 14 14 14 14 13 12 12 12 12 13 13 14 14 15 15 15 15 15 15 15 16 16 16 16 17 17
31 30 29 29 28 25 20 20 21 19 18 17 17 16 16 16 16 16 16 16 16 16 16 16 15 14 14 14 14 13 13 13 13 14 15 15 16 16 16 17 17 16 16 16 17 17 18 18 18
Wind_Direction
80 76 68 66 63 61 66 71 71 72 73 75 78 81 81 82 85 86 87 87 90 93 92 91 92 95 96 99 101 103 102 103 103 104 105 104 104 103 103 105 103 102 102 101 99 99 94 97 98
79 77 70 67 68 61 65 70 71 72 73 74 76 78 79 80 83 84 87 87 86 88 92 92 95 97 100 104 104 101 103 104 104 105 106 105 106 106 104 105 106 103 104 104 102 99 95 94 97
80 77 72 68 69 68 68 69 72 72 71 72 73 75 77 78 79 82 87 89 86 85 90 95 99 102 105 108 109 107 105 103 106 107 108 107 105 106 108 108 107 104 106 105 101 98 94 96 98
82 79 74 72 69 69 70 71 72 70 69 69 71 72 73 74 76 80 84 85 84 86 89 99 106 109 110 109 112 113 111 106 106 107 107 108 107 105 107 111 108 104 104 104 100 99 99 96 101
86 81 78 76 71 72 72 73 73 70 67 67 70 70 70 71 72 77 81 81 82 87 92 103 110 113 113 114 115 116 115 111 109 109 106 105 107 108 109 111 110 104 100 100 102 98 97 101 110
87 82 92 84 70 71 73 73 74 71 68 67 68 68 68 70 71 74 78 78 82 88 96 103 109 113 115 118 120 121 120 116 115 114 110 108 107 106 107 108 105 105 104 100 102 99 98 100 107
92 92 101 90 73 67 67 70 70 69 69 67 67 69 69 69 69 69 73 75 77 84 89 104 113 114 115 117 122 124 125 123 121 118 114 111 114 108 112 108 105 105 106 106 104 105 106 104 105
100 95 95 92 79 71 64 62 63 64 65 65 66 69 69 70 68 66 69 74 75 76 82 102 117 120 117 118 122 126 129 129 130 128 122 119 118 116 111 112 109 111 112 112 113 110 110 107 106
118 107 117 108 92 84 69 61 60 60 61 63 63 63 66 69 67 64 66 68 70 70 77 105 118 124 123 122 125 128 133 136 134 132 127 123 123 122 116 111 107 111 112 114 116 113 112 110 112
145 135 145 128 104 85 72 67 60 59 56 57 58 59 62 69 67 65 63 63 66 67 71 98 117 126 123 122 128 132 135 136 138 135 133 132 130 128 128 122 110 111 113 114 116 115 119 120 113
190 172 168 154 138 102 81 76 66 57 49 50 53 59 62 69 70 68 65 64 65 62 67 87 113 119 125 124 125 127 131 136 142 144 144 141 139 138 139 128 119 114 113 113 121 123 124 125 117
215 204 199 195 188 150 107 88 74 63 53 51 51 58 61 68 69 65 63 62 58 54 65 82 103 116 130 137 129 124 135 141 146 151 155 152 152 158 149 134 122 122 122 121 131 133 132 134 134
226 220 218 225 220 203 161 114 92 69 65 54 49 52 58 62 64 59 53 51 47 44 53 73 100 120 153 180 186 172 160 160 167 171 174 165 157 168 168 165 148 140 145 144 143 150 158 163 163
229 228 226 229 226 223 228 200 165 82 61 47 42 46 53 57 54 51 42 33 29 28 26 35 72 137 224 248 237 227 219 203 199 194 194 198 198 192 196 186 188 181 174 172 168 180 191 208 215
230 230 230 230 229 227 234 247 255 271 289 6 40 44 46 45 40 40 32 21 15 9 359 345 319 295 265 256 247 233 229 223 220 222 215 213 217 224 223 212 209 203 202 208 208 208 213 222 232
229 230 233 232 230 232 237 253 265 270 265 255 339 20 18 22 18 16 13 4 359 351 336 321 310 305 277 258 257 241 235 231 232 234 235 235 238 245 247 248 238 225 224 220 223 226 230 234 239
228 230 233 236 232 235 237 244 259 261 256 250 265 306 330 340 347 354 349 347 346 341 332 324 312 310 303 278 260 251 242 238 238 236 239 250 256 256 255 264 258 243 238 235 236 239 240 237 244
229 230 233 238 235 238 242 247 250 249 254 255 264 283 293 310 309 320 328 335 334 333 330 325 317 315 308 304 264 249 246 243 241 241 243 250 256 261 264 269 263 253 247 247 247 245 246 246 247
225 227 231 236 237 240 245 249 248 249 250 255 262 271 279 289 295 298 306 314 318 326 328 325 319 315 313 307 275 254 250 247 249 251 256 255 255 262 268 272 268 255 252 253 255 254 254 252 255
224 226 231 236 237 240 246 250 251 252 253 255 262 267 270 278 287 291 296 300 302 311 320 319 313 306 309 310 288 264 258 257 259 260 263 264 259 260 269 272 272 268 263 262 265 263 262 256 258
225 227 232 237 239 241 245 250 252 252 253 254 258 263 269 273 278 285 289 290 297 303 311 314 313 293 296 298 286 273 268 264 267 260 262 260 261 264 269 272 274 273 268 264 264 263 261 260 260
225 227 231 235 238 242 243 247 252 249 249 250 254 260 265 268 271 277 280 283 290 296 304 307 301 297 294 291 282 276 275 272 270 264 262 260 262 266 270 272 277 277 271 267 268 265 261 262 263
226 227 230 235 238 242 244 242 250 248 245 246 252 257 261 263 267 272 275 278 286 291 297 298 297 295 295 291 282 273 274 276 273 270 267 266 265 268 272 274 278 279 274 270 267 267 266 264 263
226 227 230 234 238 241 244 244 245 248 244 246 250 254 259 262 265 269 273 278 285 285 291 293 291 292 296 293 289 279 275 273 270 269 269 270 271 272 273 276 279 283 281 277 272 268 268 265 265
225 226 229 232 236 241 244 244 243 246 245 247 251 252 257 259 263 267 272 280 285 283 286 289 287 289 291 290 291 286 276 271 269 267 266 269 273 276 273 275 280 284 285 280 276 271 268 267 267
226 227 228 230 236 241 244 243 245 245 247 249 250 251 254 256 260 263 266 274 280 283 285 287 285 284 286 289 293 288 278 271 267 265 265 268 273 277 279 279 277 280 283 281 276 271 271 270 270
224 224 226 230 232 234 243 243 243 245 248 250 250 249 249 252 255 257 261 267 271 277 282 286 286 283 282 286 290 285 274 269 266 267 269 274 278 280 281 279 277 278 278 279 279 276 272 272 273
223 223 225 226 229 232 241 244 243 244 248 249 248 247 248 249 252 255 258 261 266 271 276 283 285 280 277 280 282 282 276 269 265 268 274 279 281 282 282 280 279 280 279 277 277 278 276 277 277
222 223 225 226 229 228 236 245 242 243 245 247 247 247 245 246 249 252 255 259 262 266 272 277 279 275 272 274 276 277 275 270 267 269 274 279 281 280 279 278 279 280 280 280 279 279 278 279 278
222 224 225 228 230 228 227 244 245 243 244 244 246 246 243 243 248 251 255 257 260 265 270 274 273 272 271 271 269 273 273 270 269 271 275 277 277 278 279 277 276 276 278 280 279 280 281 280 278
Height
5910 5910 5910 5910 5910 5911 5909 5908 5906 5904 5903 5902 5901 5900 5900 5900 5901 5902 5900 5898 5899 5898 5898 5898 5898 5898 5898 5898 5898 5898 5898 5898 5898 5898 5899 5899 5899 5899 5900 5900 5901 5901 5901 5901 5901 5902 5902 5902 5902
5912 5912 5912 5913 5914 5914 5912 5910 5908 5907 5906 5904 5902 5902 5901 5901 5901 5901 5900 5901 5901 5900 5900 5900 5900 5900 5900 5900 5900 5899 5899 5900 5900 5900 5900 5900 5900 5901 5901 5902 5902 5902 5902 5903 5903 5903 5903 5903 5903
5913 5913 5915 5915 5915 5915 5914 5912 5910 5908 5907 5906 5905 5904 5903 5903 5903 5902 5902 5902 5902 5902 5902 5902 5902 5902 5902 5902 5902 5901 5901 5901 5901 5901 5901 5901 5902 5902 5903 5903 5903 5903 5904 5904 5904 5904 5904 5904 5904
5915 5916 5917 5918 5917 5916 5915 5913 5911 5910 5909 5908 5907 5906 5905 5905 5904 5904 5904 5904 5904 5904 5904 5904 5904 5904 5904 5903 5903 5903 5903 5903 5903 5903 5903 5903 5903 5903 5904 5904 5904 5904 5905 5905 5905 5905 5905 5905 5906
5916 5917 5919 5920 5918 5917 5916 5914 5913 5912 5911 5909 5908 5907 5907 5906 5906 5906 5905 5905 5905 5905 5905 5905 5905 5905 5905 5905 5905 5905 5905 5904 5904 5904 5904 5904 5905 5905 5905 5905 5905 5906 5906 5906 5906 5906 5906 5906 5907
5918 5919 5922 5921 5920 5919 5917 5916 5914 5913 5912 5911 5910 5909 5908 5908 5908 5907 5907 5907 5907 5907 5906 5906 5906 5906 5906 5906 5906 5906 5906 5905 5906 5905 5905 5906 5906 5906 5906 5906 5907 5907 5907 5907 5907 5907 5907 5907 5908
5919 5920 5922 5922 5921 5920 5919 5918 5916 5915 5914 5913 5912 5911 5910 5909 5909 5909 5908 5908 5908 5908 5908 5907 5907 5907 5907 5907 5907 5907 5907 5907 5907 5907 5907 5907 5907 5908 5908 5908 5908 5908 5908 5908 5908 5908 5908 5909 5909
5919 5921 5922 5922 5922 5921 5920 5919 5918 5916 5916 5915 5914 5913 5912 5911 5911 5910 5910 5909 5909 5909 5909 5908 5908 5908 5908 5908 5907 5907 5908 5908 5908 5908 5908 5908 5908 5909 5909 5908 5909 5909 5909 5909 5909 5909 5909 5910 5910
5919 5922 5923 5922 5922 5922 5921 5920 5919 5918 5917 5916 5915 5914 5913 5912 5912 5911 5911 5911 5910 5910 5910 5909 5909 5909 5909 5908 5908 5908 5908 5908 5908 5908 5909 5909 5909 5909 5909 5910 5910 5910 5910 5910 5910 5910 5910 5910 5911
5919 5921 5922 5922 5922 5922 5921 5921 5920 5919 5918 5917 5916 5915 5914 5913 5913 5912 5912 5912 5911 5911 5911 5910 5910 5910 5910 5909 5909 5909 5909 5909 5909 5909 5910 5910 5910 5910 5910 5910 5910 5911 5911 5911 5911 5911 5911 5911 5911
5918 5920 5920 5921 5921 5921 5921 5921 5920 5920 5919 5918 5917 5916 5915 5914 5914 5914 5913 5913 5912 5912 5912 5911 5911 5911 5911 5911 5910 5910 5910 5910 5910 5910 5910 5910 5910 5910 5910 5911 5911 5911 5911 5911 5911 5911 5912 5912 5912
5917 5918 5919 5920 5920 5921 5921 5921 5921 5920 5920 5919 5918 5917 5916 5915 5915 5915 5914 5914 5913 5913 5912 5912 5912 5912 5912 5912 5911 5911 5911 5911 5911 5911 5911 5911 5911 5911 5911 5911 5911 5911 5911 5911 5912 5912 5912 5912 5912
5915 5917 5918 5919 5920 5920 5921 5921 5921 5921 5920 5919 5918 5918 5917 5916 5916 5916 5915 5915 5914 5914 5913 5913 5913 5912 5912 5912 5912 5911 5911 5911 5911 5912 5912 5912 5912 5912 5912 5912 5912 5912 5912 5912 5912 5912 5913 5913 5913
5913 5915 5916 5918 5919 5920 5920 5921 5921 5921 5920 5920 5919 5918 5918 5917 5917 5916 5916 5915 5915 5914 5914 5913 5913 5912 5912 5912 5912 5912 5912 5912 5912 5912 5912 5912 5912 5912 5912 5912 5912 5912 5912 5912 5912 5913 5913 5913 5913
5911 5913 5915 5916 5918 5919 5920 5921 5921 5920 5920 5920 5919 5919 5919 5918 5917 5917 5916 5916 5915 5914 5914 5913 5912 5912 5912 5912 5912 5912 5912 5912 5912 5912 5912 5912 5912 5913 5913 5913 5912 5912 5912 5912 5912 5912 5913 5913 5913
5908 5911 5913 5915 5916 5918 5920 5921 5920 5919 5919 5920 5919 5919 5919 5918 5917 5917 5916 5916 5915 5914 5914 5913 5912 5912 5911 5911 5911 5911 5912 5912 5912 5912 5912 5912 5912 5912 5913 5912 5912 5912 5912 5912 5912 5912 5912 5913 5913
5906 5909 5911 5913 5914 5916 5918 5919 5919 5918 5919 5919 5919 5919 5918 5918 5917 5916 5916 5915 5915 5914 5913 5912 5912 5911 5911 5910 5910 5911 5911 5911 5911 5911 5911 5912 5912 5912 5912 5912 5911 5911 5911 5911 5911 5912 5912 5912 5912
5903 5906 5908 5909 5912 5914 5915 5917 5917 5917 5918 5918 5918 5918 5918 5917 5916 5916 5915 5915 5914 5913 5912 5912 5911 5910 5910 5909 5909 5909 5910 5910 5910 5910 5910 5911 5911 5910 5910 5910 5910 5910 5910 5911 5911 5911 5911 5911 5911
5899 5902 5904 5906 5908 5911 5913 5914 5915 5916 5916 5917 5917 5917 5916 5916 5915 5915 5914 5914 5913 5912 5911 5911 5910 5909 5909 5908 5908 5908 5908 5909 5909 5909 5909 5909 5909 5909 5909 5909 5909 5909 5909 5909 5910 5910 5910 5910 5910
5895 5898 5900 5903 5905 5908 5910 5912 5913 5914 5915 5915 5915 5915 5915 5915 5914 5914 5913 5912 5912 5911 5910 5909 5909 5908 5907 5907 5907 5907 5907 5907 5907 5907 5908 5908 5908 5908 5908 5908 5908 5908 5908 5908 5908 5908 5908 5908 5909
5891 5894 5896 5899 5902 5904 5907 5909 5910 5911 5912 5913 5913 5914 5914 5913 5913 5913 5912 5911 5911 5910 5909 5908 5907 5906 5906 5906 5906 5905 5905 5905 5905 5906 5906 5906 5906 5906 5906 5906 5906 5906 5906 5906 5906 5906 5907 5907 5907
5886 5889 5892 5895 5898 5900 5904 5907 5907 5908 5909 5910 5911 5912 5912 5912 5911 5911 5911 5910 5909 5909 5908 5907 5906 5905 5905 5905 5904 5904 5904 5903 5903 5903 5904 5904 5904 5905 5904 5904 5904 5904 5904 5904 5904 5904 5904 5905 5905
5881 5884 5888 5891 5894 5897 5899 5903 5906 5905 5906 5908 5909 5909 5910 5910 5910 5909 5909 5908 5908 5907 5906 5905 5905 5904 5904 5903 5903 5902 5902 5901 5901 5901 5902 5902 5902 5903 5903 5902 5902 5902 5902 5902 5902 5902 5902 5902 5902
5875 5880 5883 5886 5890 5892 5895 5899 5901 5901 5903 5905 5906 5906 5907 5907 5907 5907 5907 5906 5906 5905 5904 5904 5903 5902 5902 5901 5900 5900 5899 5899 5899 5899 5899 5899 5900 5900 5901 5900 5900 5900 5899 5899 5899 5899 5899 5899 5899
5870 5876 5880 5882 5885 5888 5890 5893 5897 5898 5900 5901 5903 5903 5904 5904 5905 5905 5904 5904 5903 5902 5902 5901 5901 5900 5899 5899 5898 5897 5896 5896 5896 5896 5897 5897 5898 5898 5898 5898 5898 5897 5897 5896 5896 5896 5896 5896 5896
5866 5871 5876 5880 5883 5885 5885 5888 5893 5894 5895 5897 5899 5900 5900 5901 5902 5902 5902 5901 5901 5900 5900 5899 5898 5897 5897 5896 5895 5895 5894 5894 5894 5894 5894 5895 5895 5896 5896 5896 5895 5895 5894 5894 5893 5893 5893 5893 5893
5860 5864 5870 5874 5877 5881 5882 5884 5887 5889 5891 5893 5894 5895 5896 5897 5898 5898 5898 5898 5898 5898 5897 5896 5896 5895 5894 5893 5893 5892 5891 5891 5892 5892 5892 5893 5893 5893 5893 5893 5892 5892 5892 5891 5891 5890 5890 5890 5889
5854 5859 5863 5868 5872 5876 5878 5880 5883 5884 5887 5888 5890 5891 5892 5893 5894 5895 5895 5895 5895 5895 5894 5893 5893 5892 5891 5891 5890 5890 5889 5889 5889 5890 5890 5890 5890 5890 5890 5890 5890 5889 5889 5888 5888 5887 5887 5886 5886
5849 5854 5858 5863 5867 5873 5876 5879 5878 5880 5882 5884 5885 5887 5888 5889 5890 5890 5891 5891 5891 5891 5891 5890 5889 5889 5889 5888 5888 5887 5887 5887 5887 5887 5887 5887 5887 5887 5887 5887 5886 5886 5885 5885 5884 5884 5883 5883 5882
5843 5848 5853 5858 5862 5866 5872 5876 5872 5876 5878 5880 5881 5882 5884 5885 5886 5886 5887 5887 5888 5888 5888 5887 5886 5886 5886 5886 5885 5885 5885 5885 5884 5884 5884 5884 5884 5884 5883 5883 5883 5882 5882 5881 5880 5880 5879 5878 5878